Regional Weather Roundup
Issued by NWS

Home | Current Version | Previous Version | Text Only | Print | Product List | Glossary Off
Versions: 1 2 3 4 5 6 7 8 9 10 11 12 13 14 15 16 17 18 19 20 21 22 23 24 25 26 27 28 29 30 31 32 33 34 35 36 37 38 39 40 41 42 43 44 45 46 47 48 49 50

353
ASUS43 KDTX 281910
RWRMI
MICHIGAN HOURLY REGIONAL WEATHER ROUNDUP
NATIONAL WEATHER SERVICE DETROIT/PONTIAC MI
ISSUED BY NATIONAL WEATHER SERVICE GRAND RAPIDS MI
300 PM EDT WED JUN 28 2017

NOTE: "FAIR" INDICATES FEW OR NO CLOUDS BELOW 12,000 FEET WITH NO
SIGNIFICANT WEATHER AND/OR OBSTRUCTION TO VISIBILITY.

MIZ047>049-052>055-059>063-066>070-074>076-081>083-282000-
SOUTHEAST LOWER MICHIGAN

CITY           SKY/WX    TMP DP  RH WIND       PRES   REMARKS
ALMA           CLOUDY    72  51  46 S16G26    29.99F
ANN ARBOR      CLOUDY    76  53  44 S14       30.05F
BAD AXE        CLOUDY    74  49  40 S16G22    30.02F
DETROIT CITY   CLOUDY    76  51  41 SW13G24   30.06F
DETROIT        CLOUDY    77  50  38 S13G23    30.06F
FLINT          CLOUDY    75  50  41 S15G22    30.03F
GROSSE ILE     CLOUDY    74  56  52 S10       30.06F
HILLSDALE      MOSUNNY   75  46  35 S12G20    30.06F
HOWELL         PTSUNNY   75  46  35 S13G20    30.04F

CITY           SKY/WX    TMP DP  RH WIND       PRES   REMARKS
JACKSON        CLOUDY    78  49  35 S15G23    30.04F
LANSING        MOSUNNY   78  51  38 S14G28    30.02F
MASON          CLOUDY    75  52  43 SW8       30.03F
MONROE         MOSUNNY   77  49  37 SW10G17   30.05F
MT. CLEMENS    CLOUDY    78  51  39 S13G22    30.03F
PONTIAC        CLOUDY    75  46  35 SW12G20   30.04F
PORT HOPE        N/A     75  50  41 SW9G16    29.99F
PORT HURON     CLOUDY    73  45  35 S15G23    30.05F
TRI CITIES     CLOUDY    76  53  44 S14       29.99F
YPSILANTI      CLOUDY    79  49  34 S18       30.05F
$$
MIZ043>046-050>051-056>058-064>065-071>073-077>080-282000-
SOUTHWEST LOWER MICHIGAN

CITY           SKY/WX    TMP DP  RH WIND       PRES   REMARKS
BATTLE CREEK   CLOUDY    74  52  46 S18G25    30.03F
BENTON HARBOR  LGT RAIN  71  55  56 S13G26    29.91F
BIG RAPIDS     CLOUDY    69  52  55 S9        29.92F
COLDWATER      CLOUDY    74  48  39 SW9G18    30.05F
HOLLAND        CLOUDY    69  58  67 S16       29.93F
GRAND RAPIDS   LGT RAIN  72  56  57 S17G28    29.95F
KALAMAZOO      CLOUDY    76  51  41 S16       30.02F
MARSHALL       CLOUDY    74  51  42 S10       30.04F
MOUNT PLEASANT CLOUDY    74  50  43 S12G17    29.97F
MUSKEGON       CLOUDY    71  55  56 S16G26    29.91F
STURGIS        CLOUDY    72  55  53 SW13G23   30.04F
$$
MIZ016>042-282000-
NORTHERN LOWER MICHIGAN

CITY           SKY/WX    TMP DP  RH WIND       PRES   REMARKS
ALPENA         MOSUNNY   75  53  46 S10       29.93F
BEAVER ISLAND  CLOUDY    68  57  68 S8        29.86F
BELLAIRE       HVY RAIN  67  56  66 S9G23     29.89F
CADILLAC       LGT RAIN  62  59  88 S7        29.93F
CHARLEVOIX     LGT RAIN  68  57  67 S12G21    29.90F
GAYLORD        CLOUDY    71  51  49 S10G23    29.92F
HOUGHTON LAKE  PTSUNNY   72  53  51 S12       29.96F
MANISTEE       LGT RAIN  62  59  90 S8G18     29.90R
OSCODA         CLOUDY    76  47  36 S21G33    29.96F
PELLSTON       CLOUDY    74  52  46 S8G20     29.88F
TRAVERSE CITY  CLOUDY    67  58  72 VRB6      29.86F
LUDINGTON      RAIN      63  60  90 S10G20    29.91R
$$
MIZ007>008-015-282000-
EASTERN UPPER MICHIGAN

CITY           SKY/WX    TMP DP  RH WIND       PRES   REMARKS
KINROSS        CLOUDY    74  52  46 S12       29.88F
MACKINAC ISLAN CLOUDY    73  53  50 S7        29.88F
NEWBERRY       PTSUNNY   69  54  58 S18       29.84F
S. S. MARIE    CLOUDY    74  50  42 SW13      29.87F
$$
MIZ004>006-011>014-085-282000-
CENTRAL UPPER MICHIGAN

CITY           SKY/WX    TMP DP  RH WIND       PRES   REMARKS
MANISTIQUE     CLOUDY    59  56  89 S13G18    29.85S
ESCANABA       CLOUDY    63  59  87 S10       29.81F
MENOMINEE      LGT RAIN  64  61  90 S8        29.81F
SAWYER-GWINN   CLOUDY    64  57  77 S17G25    29.80R
$$
MIZ001>003-009>011-084-282000-
WESTERN UPPER MICHIGAN

CITY           SKY/WX    TMP DP  RH WIND       PRES   REMARKS
IRON MOUNTAIN  CLOUDY    64  57  78 S8        29.77F
HOUGHTON       CLOUDY    70  56  61 SE10      29.71F
COPPER HARBOR    N/A     68  52  56 S14G23    29.70F
IRONWOOD       LGT RAIN  62  60  93 SE10      29.66F
$$

ABBREVIATIONS USED IN REMARKS
   TC - TEMPERATURE IN CELSIUS
  WCI - WIND CHILL INDEX
   HX - HEAT INDEX
  VSB - VISIBILITY





USA.gov is the U.S. government's official web portal to all federal, state and local government web resources and services.